GFSGBSN_prec_precacc_051.txt.gz
Total_Precipitation_Accumulation
0.11 0.11 0.12 0.14 0.13 0.11 0.17 0.22 0.18 0.17 0.18 0.25 0.33 0.34 0.33 0.28 0.29 0.34 0.25 0.19 0.20 0.19 0.15 0.22 0.32 0.41 0.64 0.53 0.14 0.15 0.13 0.15 0.38 0.53 0.09 0.04 0.01 0.02 0.00 0.00 0.00 0.00 0.00 0.00 0.01 0.00 0.00
0.09 0.10 0.09 0.10 0.11 0.13 0.23 0.24 0.21 0.19 0.22 0.32 0.35 0.36 0.35 0.32 0.41 0.31 0.17 0.15 0.16 0.17 0.19 0.28 0.40 0.60 0.47 0.30 0.04 0.08 0.17 0.32 0.37 0.47 0.14 0.06 0.01 0.00 0.01 0.00 0.01 0.00 0.00 0.00 0.00 0.00 0.00
0.07 0.08 0.09 0.11 0.13 0.18 0.25 0.25 0.24 0.23 0.31 0.34 0.43 0.35 0.27 0.35 0.46 0.31 0.19 0.17 0.16 0.19 0.17 0.32 0.47 0.58 0.34 0.10 0.06 0.20 0.19 0.45 0.52 0.45 0.19 0.10 0.03 0.05 0.05 0.02 0.00 0.01 0.04 0.01 0.00 0.00 0.00
0.07 0.09 0.10 0.11 0.14 0.20 0.23 0.22 0.21 0.25 0.35 0.37 0.47 0.38 0.33 0.44 0.32 0.26 0.17 0.22 0.20 0.20 0.29 0.38 0.57 0.66 0.27 0.03 0.03 0.11 0.16 0.41 0.60 0.68 0.40 0.29 0.06 0.06 0.07 0.03 0.00 0.02 0.03 0.01 0.00 0.00 0.00
0.08 0.09 0.09 0.11 0.14 0.20 0.22 0.21 0.23 0.25 0.33 0.43 0.45 0.36 0.36 0.29 0.26 0.29 0.24 0.31 0.26 0.31 0.48 0.58 0.60 0.49 0.20 0.12 0.03 0.03 0.09 0.38 0.63 0.90 1.02 0.61 0.34 0.11 0.04 0.05 0.04 0.02 0.01 0.01 0.00 0.00 0.00
0.08 0.08 0.07 0.10 0.15 0.22 0.22 0.23 0.25 0.27 0.36 0.43 0.44 0.37 0.33 0.27 0.37 0.49 0.49 0.45 0.47 0.40 0.70 0.98 0.76 0.63 0.13 0.06 0.07 0.04 0.09 0.54 0.75 0.99 1.18 0.96 0.68 0.29 0.06 0.05 0.03 0.01 0.02 0.01 0.00 0.00 0.01
0.05 0.07 0.09 0.13 0.19 0.25 0.27 0.27 0.26 0.29 0.38 0.42 0.41 0.35 0.40 0.49 0.51 0.77 0.79 0.88 0.97 0.92 0.80 0.81 0.53 0.31 0.18 0.20 0.19 0.16 0.18 0.82 1.08 1.29 0.84 0.57 0.51 0.24 0.07 0.00 0.00 0.00 0.00 0.01 0.00 0.01 0.04
0.04 0.05 0.09 0.16 0.26 0.26 0.26 0.26 0.27 0.30 0.36 0.39 0.39 0.43 0.49 0.51 0.62 1.04 0.98 0.91 0.52 0.65 0.58 0.39 0.28 0.16 0.05 0.13 0.34 0.46 0.40 1.22 1.28 0.98 0.77 0.40 0.33 0.11 0.09 0.02 0.00 0.00 0.01 0.01 0.01 0.01 0.07
0.05 0.05 0.13 0.24 0.28 0.26 0.27 0.29 0.32 0.40 0.46 0.44 0.44 0.43 0.48 0.54 0.79 1.14 0.74 0.48 0.34 0.58 0.66 0.50 0.59 0.32 0.23 0.34 0.46 0.72 0.50 1.39 1.01 0.73 0.50 0.32 0.16 0.09 0.14 0.08 0.02 0.00 0.00 0.00 0.01 0.04 0.06
0.04 0.06 0.12 0.15 0.25 0.29 0.33 0.37 0.48 0.60 0.57 0.64 0.52 0.52 0.57 0.88 1.49 0.93 0.58 0.32 0.65 0.82 0.77 0.86 0.98 0.78 0.38 0.54 0.60 0.38 0.56 1.18 0.96 0.69 0.62 0.53 0.17 0.18 0.15 0.14 0.02 0.01 0.00 0.00 0.01 0.06 0.03
0.04 0.08 0.12 0.16 0.16 0.23 0.31 0.39 0.53 0.66 0.67 0.59 0.65 0.65 0.77 1.28 1.45 0.79 0.51 0.46 1.03 1.20 1.18 1.20 1.18 0.63 0.63 0.69 0.42 0.22 0.64 0.79 0.49 0.41 0.64 0.51 0.26 0.25 0.22 0.13 0.06 0.02 0.00 0.00 0.04 0.29 0.26
0.05 0.11 0.16 0.18 0.22 0.29 0.30 0.33 0.43 0.46 0.51 0.67 0.88 0.94 1.21 1.04 0.94 0.59 0.57 0.83 1.40 1.42 1.42 1.25 0.96 0.63 0.48 0.31 0.14 0.26 0.64 0.55 0.46 0.56 0.53 0.29 0.26 0.38 0.29 0.21 0.09 0.03 0.03 0.03 0.16 0.29 0.57
0.07 0.14 0.18 0.21 0.24 0.29 0.39 0.41 0.38 0.43 0.61 0.82 0.97 1.15 1.20 1.05 0.81 0.67 1.00 1.28 1.34 1.03 0.84 0.76 0.66 0.19 0.10 0.16 0.18 0.40 0.66 0.58 0.64 0.86 0.94 0.69 0.39 0.34 0.32 0.39 0.19 0.06 0.13 0.26 0.35 0.63 0.36
0.08 0.16 0.21 0.24 0.29 0.42 0.48 0.46 0.55 0.65 0.70 0.68 1.12 1.05 1.07 0.88 0.77 1.16 1.41 1.08 0.74 0.70 0.60 0.40 0.12 0.07 0.07 0.08 0.19 0.37 0.55 0.40 0.27 0.33 0.53 0.70 0.52 0.42 0.30 0.28 0.24 0.07 0.06 0.24 0.17 0.18 0.15
0.10 0.18 0.25 0.27 0.37 0.40 0.40 0.42 0.38 0.52 0.72 0.97 1.26 1.31 1.31 1.13 1.00 1.20 1.31 0.84 0.96 0.65 0.42 0.18 0.11 0.14 0.12 0.06 0.13 0.31 0.47 0.20 0.07 0.11 0.26 0.31 0.21 0.23 0.26 0.11 0.26 0.27 0.23 0.14 0.43 0.17 0.26
0.12 0.19 0.25 0.23 0.25 0.37 0.39 0.38 0.47 0.78 1.01 1.09 1.37 1.75 1.26 0.92 1.08 1.35 0.99 0.73 0.61 0.15 0.02 0.03 0.15 0.08 0.04 0.03 0.06 0.06 0.10 0.01 0.00 0.01 0.01 0.04 0.21 0.18 0.23 0.25 0.23 0.24 0.11 0.37 1.00 0.62 0.17
0.13 0.20 0.21 0.24 0.29 0.44 0.52 0.52 0.65 0.88 1.01 1.75 1.25 1.87 1.23 0.91 1.41 1.43 0.99 0.79 0.31 0.03 0.02 0.06 0.05 0.04 0.00 0.01 0.00 0.01 0.00 0.00 0.00 0.00 0.01 0.01 0.09 0.15 0.35 0.28 0.18 0.30 0.35 0.29 0.49 0.45 0.32
0.13 0.17 0.18 0.26 0.35 0.46 0.68 0.63 0.69 1.05 1.41 2.20 1.95 1.46 1.14 1.12 1.67 1.06 0.61 0.61 0.29 0.05 0.04 0.10 0.10 0.04 0.00 0.00 0.00 0.00 0.00 0.00 0.00 0.00 0.01 0.01 0.17 0.22 0.17 0.07 0.07 0.15 0.21 0.16 0.49 0.45 0.32
0.13 0.15 0.16 0.23 0.37 0.45 0.62 0.54 0.54 1.01 1.66 1.95 1.80 1.43 1.52 0.78 0.63 0.48 0.54 0.27 0.16 0.08 0.08 0.12 0.08 0.04 0.01 0.00 0.00 0.00 0.00 0.00 0.00 0.00 0.00 0.05 0.29 0.36 0.29 0.31 0.33 0.29 0.24 0.35 0.38 0.76 0.66
0.11 0.12 0.14 0.18 0.31 0.36 0.45 0.36 0.46 1.03 1.40 1.83 1.56 1.88 2.17 1.45 0.32 0.18 0.22 0.12 0.06 0.05 0.05 0.11 0.13 0.08 0.04 0.02 0.00 0.00 0.00 0.00 0.00 0.00 0.01 0.20 0.40 0.59 0.58 0.51 0.71 0.51 0.27 0.49 0.94 1.11 0.36
0.11 0.10 0.13 0.16 0.19 0.23 0.28 0.31 0.72 1.28 1.44 1.47 1.15 0.78 0.57 0.74 0.30 0.09 0.15 0.10 0.04 0.08 0.09 0.14 0.11 0.09 0.05 0.03 0.01 0.00 0.00 0.00 0.00 0.02 0.13 0.45 0.81 0.91 0.42 0.32 0.62 0.60 0.30 0.42 0.95 0.53 0.44
0.10 0.09 0.12 0.13 0.10 0.14 0.19 0.24 0.61 1.39 1.67 1.16 0.90 0.43 0.06 0.04 0.03 0.01 0.03 0.05 0.04 0.09 0.14 0.13 0.07 0.04 0.05 0.04 0.01 0.00 0.00 0.00 0.00 0.02 0.11 0.33 0.74 0.74 0.46 0.33 0.34 0.33 0.13 0.24 0.54 0.38 0.25
0.09 0.09 0.13 0.11 0.08 0.12 0.12 0.27 0.58 1.40 1.82 1.28 0.74 0.39 0.08 0.04 0.03 0.02 0.01 0.00 0.01 0.09 0.07 0.04 0.05 0.08 0.06 0.04 0.03 0.02 0.01 0.02 0.01 0.02 0.11 0.33 0.50 0.79 0.66 0.40 0.38 0.32 0.08 0.17 0.38 0.32 0.16
0.10 0.10 0.12 0.09 0.06 0.09 0.10 0.32 0.62 1.16 1.51 1.27 0.74 0.47 0.18 0.09 0.03 0.01 0.01 0.01 0.01 0.06 0.08 0.06 0.03 0.07 0.05 0.04 0.05 0.06 0.02 0.02 0.02 0.01 0.03 0.16 0.37 0.74 0.93 0.76 0.75 0.44 0.13 0.16 0.17 0.16 0.10
0.10 0.12 0.10 0.07 0.06 0.08 0.10 0.33 0.49 0.62 0.68 0.76 0.57 0.41 0.20 0.08 0.03 0.03 0.03 0.02 0.03 0.05 0.08 0.10 0.05 0.02 0.05 0.09 0.17 0.20 0.20 0.06 0.00 0.01 0.01 0.04 0.20 0.38 0.43 0.35 0.17 0.11 0.13 0.11 0.08 0.10 0.03
0.09 0.11 0.08 0.05 0.05 0.07 0.09 0.22 0.35 0.46 0.51 0.65 0.67 0.63 0.21 0.08 0.04 0.02 0.03 0.02 0.07 0.13 0.12 0.11 0.09 0.06 0.13 0.23 0.36 0.24 0.10 0.04 0.01 0.01 0.00 0.01 0.06 0.25 0.18 0.19 0.08 0.03 0.02 0.02 0.03 0.03 0.00
0.10 0.10 0.06 0.05 0.05 0.07 0.07 0.15 0.37 0.34 0.39 0.53 0.63 0.50 0.19 0.07 0.01 0.01 0.02 0.01 0.04 0.13 0.19 0.20 0.16 0.19 0.21 0.35 0.34 0.15 0.02 0.00 0.00 0.01 0.02 0.05 0.09 0.13 0.13 0.13 0.01 0.00 0.00 0.01 0.08 0.06 0.00
0.12 0.08 0.06 0.04 0.04 0.06 0.09 0.14 0.36 0.28 0.35 0.44 0.41 0.41 0.24 0.06 0.01 0.01 0.00 0.01 0.06 0.12 0.22 0.24 0.29 0.31 0.29 0.37 0.30 0.13 0.02 0.01 0.00 0.00 0.00 0.02 0.03 0.06 0.05 0.06 0.00 0.00 0.00 0.03 0.02 0.00 0.01
0.13 0.07 0.05 0.04 0.04 0.07 0.08 0.14 0.37 0.28 0.31 0.39 0.31 0.31 0.22 0.08 0.02 0.00 0.00 0.00 0.03 0.09 0.22 0.24 0.29 0.21 0.26 0.24 0.15 0.11 0.04 0.01 0.00 0.01 0.00 0.00 0.00 0.00 0.00 0.00 0.00 0.00 0.00 0.00 0.00 0.00 0.00

GFSGBSN_prec_precacc_054.txt.gz
Total_Precipitation_Accumulation
0.11 0.11 0.12 0.14 0.13 0.12 0.17 0.23 0.18 0.17 0.18 0.27 0.34 0.34 0.34 0.29 0.30 0.36 0.27 0.22 0.21 0.22 0.17 0.22 0.32 0.42 0.67 0.58 0.17 0.16 0.13 0.15 0.39 0.66 0.18 0.04 0.01 0.02 0.00 0.00 0.00 0.00 0.00 0.00 0.04 0.01 0.01
0.10 0.10 0.09 0.11 0.12 0.14 0.23 0.24 0.21 0.19 0.23 0.33 0.36 0.36 0.35 0.32 0.42 0.31 0.17 0.15 0.16 0.17 0.19 0.28 0.40 0.60 0.48 0.31 0.04 0.09 0.17 0.32 0.38 0.52 0.19 0.07 0.01 0.01 0.01 0.00 0.01 0.00 0.01 0.01 0.01 0.00 0.00
0.07 0.08 0.09 0.11 0.13 0.18 0.26 0.26 0.25 0.23 0.32 0.35 0.44 0.35 0.27 0.35 0.46 0.31 0.19 0.17 0.16 0.19 0.17 0.32 0.47 0.58 0.35 0.10 0.06 0.23 0.22 0.49 0.58 0.52 0.19 0.11 0.03 0.06 0.05 0.02 0.00 0.01 0.05 0.01 0.00 0.00 0.00
0.07 0.09 0.10 0.11 0.15 0.20 0.23 0.23 0.22 0.26 0.36 0.38 0.47 0.38 0.33 0.44 0.32 0.26 0.17 0.22 0.20 0.20 0.29 0.38 0.57 0.66 0.27 0.03 0.03 0.12 0.17 0.46 0.67 0.77 0.47 0.34 0.07 0.07 0.07 0.03 0.00 0.02 0.04 0.01 0.00 0.00 0.00
0.08 0.09 0.09 0.11 0.14 0.20 0.22 0.22 0.23 0.26 0.34 0.44 0.46 0.37 0.36 0.29 0.26 0.29 0.24 0.31 0.26 0.31 0.48 0.58 0.60 0.49 0.20 0.12 0.04 0.04 0.09 0.42 0.83 1.00 1.13 0.65 0.36 0.11 0.04 0.05 0.05 0.02 0.01 0.01 0.00 0.00 0.00
0.08 0.08 0.07 0.10 0.15 0.22 0.22 0.24 0.25 0.27 0.36 0.44 0.44 0.37 0.33 0.27 0.37 0.49 0.49 0.45 0.47 0.40 0.70 0.98 0.77 0.64 0.13 0.06 0.07 0.05 0.10 0.61 1.05 1.20 1.39 1.05 0.71 0.30 0.06 0.05 0.03 0.01 0.02 0.01 0.00 0.00 0.01
0.05 0.07 0.09 0.13 0.19 0.25 0.27 0.27 0.26 0.29 0.39 0.43 0.42 0.35 0.40 0.49 0.51 0.77 0.79 0.88 0.97 0.92 0.80 0.81 0.53 0.31 0.18 0.20 0.19 0.16 0.24 0.96 1.36 1.73 1.08 0.60 0.52 0.25 0.07 0.00 0.00 0.00 0.00 0.01 0.00 0.01 0.04
0.04 0.05 0.09 0.16 0.26 0.27 0.26 0.26 0.27 0.30 0.36 0.39 0.39 0.43 0.49 0.51 0.62 1.04 0.98 0.91 0.52 0.65 0.58 0.39 0.28 0.16 0.05 0.13 0.35 0.47 0.52 1.43 1.67 1.60 0.84 0.42 0.33 0.11 0.09 0.02 0.00 0.00 0.01 0.01 0.01 0.01 0.07
0.05 0.05 0.13 0.24 0.28 0.26 0.27 0.29 0.32 0.40 0.46 0.44 0.44 0.44 0.48 0.54 0.79 1.14 0.74 0.48 0.34 0.58 0.66 0.51 0.60 0.33 0.27 0.37 0.47 0.78 0.73 1.54 1.29 1.03 0.55 0.32 0.16 0.09 0.14 0.08 0.02 0.00 0.00 0.00 0.01 0.04 0.06
0.04 0.06 0.12 0.15 0.25 0.29 0.33 0.37 0.48 0.60 0.58 0.64 0.52 0.52 0.57 0.88 1.49 0.93 0.58 0.32 0.65 0.82 0.77 0.87 0.99 0.79 0.42 0.62 0.75 0.67 0.76 1.29 1.25 0.89 0.67 0.54 0.17 0.18 0.15 0.14 0.02 0.01 0.00 0.00 0.01 0.06 0.03
0.04 0.08 0.12 0.16 0.16 0.23 0.31 0.39 0.53 0.66 0.67 0.59 0.65 0.65 0.77 1.28 1.45 0.79 0.51 0.46 1.03 1.20 1.19 1.20 1.19 0.66 0.67 0.73 0.50 0.31 0.66 0.83 0.60 0.52 0.66 0.51 0.26 0.25 0.22 0.13 0.06 0.02 0.00 0.00 0.04 0.29 0.26
0.05 0.11 0.16 0.18 0.22 0.29 0.30 0.33 0.43 0.46 0.51 0.67 0.88 0.94 1.21 1.04 0.94 0.59 0.57 0.83 1.40 1.42 1.42 1.25 1.01 0.93 0.74 0.38 0.18 0.28 0.69 0.60 0.50 0.56 0.53 0.29 0.26 0.38 0.29 0.21 0.09 0.03 0.03 0.03 0.16 0.29 0.57
0.07 0.14 0.18 0.21 0.24 0.30 0.39 0.41 0.38 0.43 0.61 0.82 0.97 1.15 1.20 1.05 0.81 0.67 1.00 1.28 1.34 1.03 0.84 0.76 0.69 0.28 0.16 0.17 0.18 0.40 0.69 0.59 0.65 0.86 0.94 0.69 0.39 0.34 0.32 0.39 0.20 0.07 0.13 0.27 0.36 0.63 0.36
0.08 0.16 0.21 0.24 0.29 0.42 0.48 0.46 0.55 0.65 0.70 0.68 1.12 1.05 1.07 0.88 0.77 1.16 1.41 1.08 0.74 0.70 0.60 0.40 0.12 0.07 0.08 0.08 0.19 0.37 0.55 0.40 0.27 0.33 0.53 0.70 0.53 0.42 0.30 0.28 0.24 0.08 0.07 0.24 0.18 0.18 0.15
0.10 0.18 0.25 0.27 0.37 0.40 0.40 0.42 0.38 0.52 0.72 0.97 1.26 1.31 1.31 1.13 1.00 1.20 1.31 0.84 0.96 0.65 0.42 0.18 0.11 0.14 0.12 0.06 0.13 0.33 0.48 0.21 0.08 0.11 0.26 0.31 0.21 0.24 0.27 0.11 0.31 0.30 0.23 0.14 0.43 0.17 0.26
0.12 0.19 0.25 0.23 0.25 0.37 0.39 0.38 0.47 0.78 1.01 1.09 1.37 1.75 1.26 0.92 1.08 1.35 0.99 0.73 0.61 0.15 0.02 0.03 0.15 0.08 0.04 0.03 0.06 0.07 0.14 0.02 0.01 0.01 0.01 0.04 0.21 0.19 0.25 0.25 0.27 0.33 0.12 0.37 1.00 0.62 0.17
0.13 0.20 0.21 0.24 0.29 0.44 0.52 0.52 0.65 0.88 1.01 1.75 1.25 1.87 1.23 0.91 1.41 1.43 0.99 0.79 0.31 0.03 0.02 0.06 0.05 0.04 0.00 0.01 0.01 0.01 0.00 0.00 0.00 0.00 0.01 0.01 0.09 0.16 0.38 0.30 0.19 0.33 0.41 0.29 0.49 0.45 0.32
0.13 0.17 0.18 0.26 0.35 0.46 0.68 0.63 0.69 1.05 1.41 2.20 1.95 1.46 1.14 1.12 1.67 1.06 0.61 0.61 0.29 0.05 0.04 0.10 0.10 0.04 0.00 0.00 0.00 0.00 0.00 0.00 0.00 0.00 0.01 0.01 0.17 0.22 0.17 0.07 0.07 0.15 0.21 0.17 0.50 0.45 0.32
0.13 0.15 0.16 0.23 0.37 0.45 0.62 0.54 0.54 1.01 1.66 1.95 1.80 1.43 1.52 0.78 0.63 0.48 0.54 0.27 0.16 0.08 0.08 0.12 0.08 0.04 0.01 0.00 0.00 0.00 0.00 0.00 0.00 0.00 0.00 0.05 0.29 0.37 0.30 0.31 0.33 0.31 0.24 0.36 0.38 0.77 0.66
0.11 0.12 0.14 0.18 0.31 0.36 0.45 0.36 0.46 1.03 1.40 1.83 1.56 1.88 2.17 1.45 0.32 0.18 0.22 0.12 0.06 0.05 0.05 0.11 0.13 0.08 0.04 0.02 0.00 0.00 0.00 0.00 0.00 0.00 0.01 0.20 0.40 0.59 0.58 0.51 0.71 0.51 0.27 0.49 0.94 1.12 0.36
0.11 0.10 0.13 0.16 0.19 0.23 0.28 0.31 0.72 1.28 1.44 1.47 1.15 0.78 0.57 0.74 0.30 0.09 0.15 0.10 0.04 0.08 0.09 0.14 0.11 0.09 0.05 0.03 0.01 0.00 0.00 0.00 0.00 0.02 0.13 0.45 0.81 0.91 0.42 0.32 0.62 0.60 0.30 0.42 0.96 0.53 0.45
0.10 0.09 0.12 0.13 0.10 0.14 0.19 0.24 0.61 1.39 1.67 1.16 0.90 0.43 0.06 0.04 0.03 0.01 0.03 0.05 0.04 0.09 0.14 0.13 0.07 0.04 0.05 0.04 0.01 0.00 0.00 0.00 0.00 0.02 0.11 0.33 0.74 0.74 0.46 0.33 0.34 0.33 0.13 0.24 0.54 0.38 0.25
0.09 0.09 0.13 0.11 0.08 0.12 0.12 0.27 0.58 1.40 1.82 1.28 0.74 0.39 0.08 0.04 0.03 0.02 0.01 0.00 0.01 0.09 0.07 0.04 0.05 0.08 0.06 0.04 0.03 0.02 0.01 0.02 0.01 0.02 0.11 0.33 0.50 0.79 0.66 0.40 0.38 0.32 0.08 0.17 0.38 0.32 0.16
0.10 0.10 0.12 0.09 0.06 0.09 0.10 0.32 0.62 1.16 1.51 1.27 0.74 0.47 0.18 0.09 0.03 0.01 0.01 0.01 0.01 0.06 0.08 0.06 0.03 0.07 0.05 0.04 0.05 0.06 0.02 0.02 0.02 0.01 0.03 0.16 0.37 0.74 0.93 0.76 0.75 0.44 0.13 0.16 0.17 0.16 0.10
0.10 0.12 0.10 0.07 0.06 0.08 0.10 0.33 0.49 0.62 0.68 0.76 0.57 0.41 0.20 0.08 0.03 0.03 0.03 0.02 0.03 0.05 0.08 0.10 0.05 0.02 0.05 0.09 0.17 0.20 0.20 0.06 0.00 0.01 0.01 0.04 0.20 0.38 0.43 0.35 0.17 0.11 0.13 0.11 0.08 0.10 0.03
0.09 0.11 0.08 0.05 0.05 0.07 0.09 0.22 0.35 0.46 0.51 0.65 0.67 0.63 0.21 0.08 0.04 0.02 0.03 0.02 0.07 0.13 0.12 0.11 0.09 0.06 0.13 0.23 0.36 0.24 0.10 0.04 0.01 0.01 0.00 0.01 0.06 0.25 0.18 0.19 0.08 0.03 0.02 0.02 0.03 0.03 0.00
0.10 0.10 0.06 0.05 0.05 0.07 0.07 0.15 0.37 0.34 0.39 0.53 0.63 0.50 0.19 0.07 0.01 0.01 0.02 0.01 0.04 0.13 0.19 0.20 0.16 0.19 0.21 0.35 0.34 0.15 0.02 0.00 0.00 0.01 0.02 0.05 0.09 0.14 0.14 0.14 0.01 0.00 0.00 0.01 0.08 0.06 0.00
0.12 0.08 0.06 0.04 0.04 0.06 0.09 0.14 0.37 0.28 0.35 0.44 0.41 0.41 0.24 0.06 0.01 0.01 0.00 0.01 0.06 0.12 0.22 0.25 0.30 0.31 0.29 0.37 0.30 0.13 0.02 0.01 0.00 0.00 0.00 0.02 0.04 0.06 0.06 0.06 0.00 0.00 0.00 0.03 0.02 0.00 0.01
0.13 0.07 0.05 0.04 0.04 0.07 0.08 0.14 0.37 0.28 0.31 0.39 0.31 0.31 0.22 0.08 0.02 0.00 0.00 0.00 0.03 0.09 0.22 0.24 0.29 0.22 0.26 0.24 0.15 0.11 0.04 0.01 0.00 0.01 0.00 0.00 0.00 0.00 0.00 0.00 0.00 0.00 0.00 0.00 0.00 0.00 0.00

GFSGBSN_prec_precacc_060.txt.gz
Total_Precipitation_Accumulation
0.11 0.11 0.12 0.14 0.13 0.12 0.18 0.24 0.19 0.18 0.20 0.30 0.37 0.35 0.35 0.30 0.31 0.36 0.27 0.22 0.21 0.22 0.17 0.22 0.32 0.43 0.67 0.59 0.18 0.18 0.14 0.19 0.40 0.73 0.31 0.06 0.01 0.03 0.01 0.01 0.02 0.01 0.01 0.03 0.07 0.04 0.01
0.10 0.10 0.09 0.11 0.12 0.14 0.24 0.25 0.22 0.20 0.25 0.36 0.38 0.37 0.36 0.33 0.42 0.31 0.17 0.15 0.16 0.17 0.19 0.28 0.41 0.61 0.48 0.31 0.04 0.11 0.18 0.32 0.38 0.64 0.36 0.09 0.02 0.01 0.02 0.01 0.04 0.01 0.03 0.06 0.09 0.06 0.01
0.07 0.08 0.09 0.12 0.13 0.19 0.26 0.26 0.25 0.24 0.33 0.37 0.46 0.37 0.28 0.35 0.46 0.31 0.19 0.17 0.16 0.19 0.17 0.32 0.49 0.58 0.35 0.10 0.06 0.27 0.25 0.49 0.59 0.62 0.40 0.13 0.03 0.08 0.06 0.04 0.05 0.05 0.10 0.08 0.06 0.05 0.02
0.07 0.09 0.10 0.11 0.15 0.20 0.23 0.23 0.22 0.26 0.36 0.39 0.49 0.40 0.34 0.44 0.32 0.26 0.17 0.22 0.20 0.20 0.29 0.39 0.65 0.67 0.27 0.03 0.04 0.27 0.24 0.50 0.70 0.91 0.72 0.44 0.08 0.12 0.08 0.05 0.05 0.05 0.09 0.04 0.02 0.06 0.06
0.08 0.09 0.09 0.11 0.14 0.20 0.22 0.22 0.23 0.26 0.34 0.45 0.47 0.39 0.37 0.30 0.26 0.29 0.24 0.31 0.26 0.31 0.48 0.59 0.61 0.49 0.20 0.13 0.10 0.40 0.20 0.52 0.92 1.19 1.46 0.89 0.42 0.16 0.05 0.06 0.05 0.03 0.01 0.01 0.01 0.01 0.05
0.08 0.08 0.07 0.10 0.15 0.22 0.23 0.24 0.25 0.28 0.37 0.45 0.45 0.39 0.34 0.27 0.37 0.49 0.49 0.45 0.47 0.40 0.70 0.98 0.77 0.64 0.13 0.10 0.16 0.27 0.13 0.66 1.17 1.49 2.02 1.41 0.80 0.33 0.06 0.05 0.03 0.01 0.02 0.01 0.00 0.00 0.01
0.05 0.07 0.09 0.13 0.19 0.25 0.27 0.27 0.27 0.30 0.39 0.43 0.43 0.36 0.41 0.50 0.52 0.77 0.79 0.88 0.97 0.92 0.80 0.81 0.53 0.31 0.18 0.21 0.26 0.23 0.25 1.03 1.57 2.22 1.89 0.90 0.54 0.25 0.07 0.00 0.00 0.00 0.00 0.01 0.00 0.01 0.04
0.04 0.05 0.09 0.16 0.27 0.27 0.26 0.26 0.27 0.31 0.37 0.40 0.40 0.44 0.50 0.52 0.62 1.04 0.98 0.91 0.52 0.65 0.58 0.39 0.28 0.16 0.05 0.13 0.36 0.47 0.57 1.63 2.02 2.17 1.23 0.50 0.34 0.11 0.09 0.02 0.00 0.00 0.01 0.01 0.01 0.01 0.07
0.05 0.05 0.13 0.24 0.28 0.27 0.28 0.29 0.32 0.40 0.46 0.45 0.46 0.45 0.49 0.55 0.79 1.14 0.74 0.48 0.34 0.58 0.66 0.51 0.60 0.33 0.27 0.38 0.48 0.81 0.93 1.89 1.60 1.52 0.72 0.34 0.16 0.09 0.15 0.09 0.02 0.00 0.00 0.00 0.01 0.04 0.06
0.04 0.06 0.12 0.15 0.25 0.30 0.33 0.37 0.48 0.60 0.58 0.65 0.53 0.53 0.58 0.89 1.49 0.93 0.58 0.32 0.65 0.82 0.77 0.87 0.99 0.80 0.43 0.62 0.79 0.77 1.02 1.56 1.54 1.25 0.79 0.56 0.17 0.18 0.17 0.15 0.02 0.01 0.00 0.00 0.01 0.06 0.03
0.04 0.08 0.12 0.16 0.16 0.23 0.31 0.40 0.53 0.66 0.67 0.59 0.65 0.66 0.78 1.29 1.45 0.79 0.51 0.46 1.03 1.20 1.19 1.21 1.20 0.66 0.67 0.77 0.56 0.68 1.03 1.10 0.84 0.98 0.85 0.55 0.26 0.25 0.22 0.13 0.06 0.02 0.00 0.00 0.04 0.29 0.26
0.05 0.11 0.16 0.18 0.22 0.29 0.31 0.33 0.43 0.46 0.51 0.67 0.88 0.95 1.21 1.04 0.94 0.59 0.57 0.83 1.40 1.42 1.42 1.26 1.08 0.94 0.74 0.40 0.22 0.59 1.07 0.93 0.70 0.73 0.54 0.29 0.26 0.39 0.29 0.21 0.09 0.03 0.03 0.03 0.16 0.29 0.57
0.07 0.14 0.18 0.21 0.24 0.30 0.39 0.41 0.38 0.43 0.61 0.82 0.97 1.15 1.21 1.05 0.81 0.67 1.00 1.28 1.34 1.03 0.84 0.77 0.76 0.34 0.17 0.20 0.23 0.70 0.98 0.88 0.91 1.10 1.00 0.70 0.39 0.34 0.32 0.39 0.20 0.07 0.13 0.27 0.37 0.63 0.36
0.08 0.16 0.21 0.24 0.29 0.42 0.48 0.46 0.55 0.65 0.70 0.68 1.12 1.05 1.07 0.88 0.77 1.16 1.41 1.08 0.74 0.70 0.60 0.40 0.13 0.08 0.08 0.09 0.21 0.45 0.71 0.53 0.29 0.34 0.54 0.72 0.54 0.42 0.30 0.28 0.25 0.08 0.07 0.24 0.18 0.18 0.15
0.10 0.18 0.25 0.27 0.37 0.40 0.40 0.42 0.38 0.52 0.72 0.97 1.26 1.31 1.31 1.13 1.00 1.20 1.31 0.84 0.96 0.65 0.42 0.18 0.12 0.15 0.12 0.06 0.13 0.34 0.53 0.24 0.08 0.11 0.26 0.31 0.21 0.24 0.27 0.11 0.31 0.31 0.24 0.14 0.43 0.17 0.26
0.12 0.19 0.25 0.23 0.25 0.37 0.39 0.38 0.47 0.78 1.01 1.09 1.37 1.75 1.26 0.92 1.08 1.35 0.99 0.73 0.61 0.15 0.02 0.03 0.15 0.08 0.04 0.03 0.06 0.07 0.14 0.02 0.01 0.01 0.01 0.04 0.21 0.20 0.25 0.25 0.27 0.33 0.12 0.38 1.00 0.62 0.17
0.13 0.20 0.21 0.24 0.29 0.44 0.52 0.52 0.65 0.88 1.01 1.75 1.25 1.87 1.23 0.91 1.41 1.43 0.99 0.79 0.31 0.03 0.02 0.06 0.05 0.04 0.00 0.01 0.01 0.01 0.00 0.00 0.00 0.00 0.01 0.01 0.09 0.18 0.40 0.31 0.19 0.33 0.44 0.30 0.50 0.45 0.32
0.13 0.17 0.18 0.26 0.35 0.46 0.68 0.63 0.69 1.05 1.41 2.20 1.95 1.46 1.14 1.12 1.67 1.06 0.61 0.61 0.29 0.05 0.04 0.10 0.10 0.04 0.00 0.00 0.00 0.00 0.00 0.00 0.00 0.00 0.01 0.01 0.17 0.24 0.18 0.07 0.07 0.15 0.21 0.17 0.51 0.45 0.32
0.13 0.15 0.16 0.23 0.37 0.45 0.62 0.54 0.54 1.01 1.66 1.95 1.80 1.43 1.52 0.78 0.63 0.48 0.54 0.27 0.16 0.08 0.08 0.12 0.08 0.04 0.01 0.00 0.00 0.00 0.00 0.00 0.00 0.00 0.00 0.05 0.29 0.39 0.33 0.33 0.34 0.32 0.25 0.36 0.38 0.78 0.67
0.11 0.12 0.14 0.18 0.31 0.36 0.45 0.36 0.46 1.03 1.40 1.83 1.56 1.88 2.17 1.45 0.33 0.18 0.22 0.12 0.06 0.05 0.05 0.11 0.13 0.08 0.04 0.02 0.00 0.00 0.00 0.00 0.00 0.00 0.02 0.20 0.40 0.59 0.59 0.52 0.71 0.51 0.28 0.50 0.95 1.17 0.38
0.11 0.10 0.13 0.16 0.19 0.23 0.28 0.31 0.72 1.28 1.44 1.47 1.15 0.78 0.57 0.74 0.30 0.09 0.15 0.10 0.04 0.08 0.09 0.14 0.11 0.09 0.05 0.03 0.01 0.00 0.00 0.00 0.00 0.02 0.13 0.45 0.81 0.91 0.42 0.32 0.62 0.60 0.30 0.42 0.96 0.54 0.45
0.10 0.09 0.12 0.13 0.10 0.14 0.19 0.24 0.61 1.39 1.67 1.16 0.90 0.43 0.06 0.04 0.03 0.01 0.03 0.05 0.04 0.09 0.14 0.13 0.07 0.04 0.05 0.04 0.01 0.00 0.00 0.00 0.00 0.02 0.11 0.33 0.74 0.74 0.46 0.33 0.34 0.33 0.13 0.24 0.54 0.38 0.25
0.09 0.09 0.13 0.11 0.08 0.12 0.12 0.27 0.58 1.40 1.82 1.28 0.74 0.39 0.08 0.04 0.03 0.02 0.01 0.00 0.01 0.09 0.07 0.04 0.05 0.08 0.06 0.04 0.03 0.02 0.01 0.02 0.01 0.02 0.11 0.33 0.50 0.79 0.66 0.40 0.38 0.32 0.08 0.17 0.38 0.32 0.16
0.10 0.10 0.12 0.09 0.06 0.09 0.10 0.32 0.62 1.16 1.51 1.27 0.74 0.47 0.18 0.09 0.03 0.01 0.01 0.01 0.01 0.06 0.08 0.06 0.03 0.07 0.05 0.04 0.05 0.06 0.02 0.02 0.02 0.01 0.03 0.16 0.37 0.74 0.93 0.76 0.75 0.44 0.13 0.16 0.17 0.16 0.10
0.10 0.12 0.10 0.07 0.06 0.08 0.10 0.33 0.49 0.62 0.68 0.76 0.57 0.41 0.20 0.08 0.03 0.03 0.03 0.02 0.03 0.05 0.08 0.10 0.05 0.02 0.05 0.09 0.17 0.20 0.20 0.06 0.00 0.01 0.01 0.04 0.20 0.38 0.43 0.35 0.17 0.11 0.13 0.11 0.08 0.10 0.03
0.09 0.11 0.08 0.05 0.05 0.07 0.09 0.22 0.35 0.46 0.51 0.65 0.67 0.63 0.21 0.08 0.04 0.02 0.03 0.02 0.07 0.13 0.12 0.11 0.09 0.06 0.13 0.23 0.36 0.24 0.10 0.04 0.01 0.01 0.00 0.01 0.06 0.25 0.18 0.19 0.08 0.03 0.02 0.02 0.03 0.03 0.00
0.10 0.10 0.06 0.05 0.05 0.07 0.07 0.15 0.37 0.34 0.39 0.53 0.63 0.50 0.19 0.07 0.01 0.01 0.02 0.01 0.04 0.13 0.19 0.20 0.17 0.19 0.21 0.35 0.34 0.15 0.02 0.00 0.00 0.01 0.02 0.05 0.09 0.14 0.14 0.14 0.01 0.00 0.00 0.01 0.08 0.06 0.00
0.12 0.08 0.06 0.04 0.04 0.06 0.09 0.14 0.37 0.28 0.35 0.44 0.41 0.41 0.24 0.06 0.01 0.01 0.00 0.01 0.06 0.12 0.22 0.25 0.34 0.33 0.30 0.37 0.30 0.13 0.02 0.01 0.00 0.00 0.00 0.02 0.04 0.06 0.06 0.07 0.00 0.00 0.00 0.03 0.02 0.00 0.01
0.13 0.07 0.05 0.04 0.04 0.07 0.08 0.14 0.37 0.28 0.31 0.39 0.31 0.31 0.22 0.08 0.02 0.00 0.00 0.00 0.03 0.09 0.22 0.24 0.36 0.27 0.27 0.25 0.16 0.11 0.04 0.01 0.00 0.01 0.00 0.00 0.00 0.00 0.00 0.00 0.00 0.00 0.00 0.00 0.00 0.00 0.00

GFSGBSN_prec_precacc_066.txt.gz
Total_Precipitation_Accumulation
0.11 0.11 0.12 0.14 0.13 0.12 0.18 0.25 0.20 0.18 0.21 0.31 0.38 0.36 0.36 0.31 0.31 0.37 0.27 0.22 0.21 0.22 0.17 0.22 0.32 0.43 0.67 0.59 0.18 0.18 0.15 0.28 0.54 0.90 0.37 0.16 0.04 0.04 0.02 0.02 0.06 0.17 0.07 0.04 0.07 0.05 0.01
0.10 0.10 0.09 0.11 0.12 0.14 0.24 0.26 0.23 0.20 0.26 0.36 0.39 0.38 0.38 0.34 0.42 0.31 0.17 0.15 0.16 0.17 0.19 0.29 0.41 0.61 0.48 0.31 0.04 0.11 0.18 0.34 0.46 0.77 0.43 0.20 0.04 0.02 0.03 0.02 0.07 0.04 0.11 0.14 0.12 0.08 0.02
0.07 0.08 0.09 0.12 0.13 0.19 0.26 0.27 0.26 0.24 0.34 0.38 0.47 0.38 0.29 0.36 0.46 0.31 0.19 0.17 0.16 0.19 0.17 0.33 0.51 0.58 0.35 0.10 0.06 0.27 0.25 0.49 0.60 0.68 0.50 0.25 0.06 0.08 0.08 0.07 0.06 0.06 0.14 0.23 0.12 0.09 0.05
0.07 0.09 0.10 0.11 0.15 0.20 0.23 0.24 0.23 0.27 0.37 0.40 0.50 0.40 0.35 0.45 0.32 0.26 0.17 0.22 0.20 0.20 0.29 0.39 0.67 0.67 0.27 0.03 0.04 0.27 0.24 0.50 0.70 0.92 0.82 0.62 0.12 0.13 0.10 0.06 0.06 0.09 0.12 0.08 0.07 0.08 0.07
0.08 0.09 0.09 0.11 0.14 0.20 0.22 0.22 0.24 0.27 0.35 0.46 0.48 0.39 0.38 0.31 0.27 0.29 0.24 0.31 0.26 0.31 0.48 0.59 0.61 0.49 0.20 0.14 0.10 0.46 0.24 0.52 0.95 1.22 1.53 1.23 0.49 0.19 0.06 0.09 0.06 0.04 0.01 0.01 0.01 0.01 0.05
0.08 0.08 0.07 0.10 0.15 0.22 0.23 0.24 0.26 0.29 0.38 0.47 0.47 0.40 0.35 0.28 0.38 0.50 0.49 0.45 0.47 0.40 0.70 0.98 0.77 0.64 0.13 0.17 0.26 0.58 0.20 0.67 1.22 1.56 2.12 2.13 0.94 0.35 0.07 0.06 0.03 0.01 0.02 0.01 0.00 0.00 0.02
0.05 0.08 0.09 0.13 0.19 0.25 0.28 0.27 0.27 0.30 0.40 0.45 0.44 0.37 0.41 0.50 0.52 0.77 0.79 0.88 0.97 0.92 0.80 0.81 0.53 0.31 0.18 0.41 0.84 0.58 0.31 1.11 1.68 2.29 2.06 1.60 0.67 0.26 0.08 0.00 0.00 0.00 0.00 0.01 0.00 0.01 0.04
0.08 0.07 0.10 0.16 0.27 0.27 0.27 0.26 0.27 0.31 0.38 0.41 0.42 0.45 0.51 0.52 0.63 1.05 0.98 0.91 0.52 0.65 0.58 0.39 0.28 0.16 0.05 0.16 0.63 0.62 0.69 1.73 2.12 2.30 1.50 0.87 0.41 0.12 0.10 0.02 0.00 0.00 0.01 0.01 0.01 0.01 0.07
0.07 0.06 0.13 0.24 0.28 0.27 0.28 0.29 0.32 0.41 0.47 0.47 0.47 0.45 0.49 0.56 0.80 1.14 0.74 0.48 0.34 0.58 0.66 0.51 0.60 0.33 0.28 0.41 0.50 0.87 1.02 1.98 1.77 1.71 0.94 0.47 0.19 0.10 0.17 0.09 0.02 0.00 0.00 0.00 0.01 0.04 0.06
0.06 0.07 0.12 0.15 0.25 0.30 0.33 0.37 0.49 0.61 0.59 0.66 0.54 0.53 0.59 0.90 1.49 0.93 0.58 0.32 0.65 0.82 0.77 0.87 0.99 0.80 0.45 0.64 0.86 0.81 1.04 1.63 1.75 1.58 1.08 0.64 0.17 0.19 0.19 0.16 0.02 0.01 0.00 0.00 0.01 0.06 0.03
0.07 0.08 0.12 0.16 0.16 0.23 0.31 0.40 0.54 0.66 0.68 0.60 0.65 0.66 0.79 1.29 1.45 0.79 0.51 0.46 1.03 1.20 1.19 1.21 1.20 0.67 0.67 0.77 0.57 0.69 1.04 1.14 1.03 1.29 1.03 0.61 0.27 0.26 0.26 0.14 0.06 0.02 0.00 0.00 0.04 0.29 0.26
0.07 0.12 0.16 0.18 0.22 0.29 0.31 0.33 0.43 0.46 0.51 0.67 0.88 0.95 1.22 1.04 0.94 0.59 0.57 0.83 1.40 1.42 1.42 1.26 1.08 0.94 0.75 0.42 0.22 0.60 1.10 0.97 0.83 0.97 0.62 0.31 0.26 0.40 0.31 0.21 0.09 0.03 0.03 0.03 0.16 0.29 0.57
0.08 0.14 0.18 0.21 0.24 0.30 0.39 0.41 0.38 0.43 0.62 0.82 0.97 1.16 1.21 1.05 0.81 0.67 1.00 1.28 1.34 1.03 0.84 0.77 0.76 0.34 0.17 0.20 0.24 0.72 1.00 0.91 0.96 1.47 1.20 0.81 0.41 0.35 0.34 0.39 0.20 0.07 0.13 0.28 0.37 0.64 0.36
0.09 0.16 0.21 0.24 0.29 0.42 0.48 0.46 0.55 0.65 0.70 0.68 1.12 1.05 1.07 0.88 0.77 1.16 1.41 1.08 0.74 0.70 0.60 0.41 0.13 0.08 0.09 0.09 0.23 0.47 0.76 0.54 0.30 0.38 0.58 0.78 0.61 0.44 0.31 0.29 0.25 0.08 0.07 0.24 0.18 0.18 0.15
0.12 0.18 0.25 0.27 0.37 0.40 0.40 0.42 0.38 0.52 0.72 0.97 1.26 1.31 1.31 1.13 1.00 1.20 1.31 0.84 0.96 0.65 0.42 0.18 0.12 0.15 0.13 0.06 0.13 0.36 0.59 0.25 0.08 0.12 0.26 0.31 0.22 0.24 0.27 0.11 0.32 0.31 0.24 0.14 0.43 0.17 0.26
0.13 0.20 0.25 0.23 0.25 0.37 0.39 0.38 0.47 0.78 1.01 1.09 1.37 1.75 1.26 0.92 1.08 1.35 0.99 0.73 0.61 0.15 0.02 0.03 0.15 0.08 0.04 0.03 0.06 0.08 0.18 0.04 0.01 0.01 0.01 0.04 0.22 0.20 0.25 0.26 0.27 0.33 0.12 0.38 1.00 0.62 0.17
0.19 0.23 0.22 0.24 0.29 0.44 0.52 0.52 0.65 0.88 1.01 1.75 1.25 1.87 1.23 0.91 1.41 1.44 0.99 0.79 0.31 0.03 0.02 0.06 0.05 0.04 0.00 0.01 0.01 0.01 0.01 0.02 0.00 0.00 0.01 0.01 0.10 0.19 0.41 0.31 0.20 0.34 0.44 0.30 0.50 0.45 0.32
0.22 0.23 0.21 0.26 0.35 0.46 0.68 0.63 0.69 1.05 1.41 2.20 1.95 1.46 1.14 1.12 1.68 1.06 0.61 0.61 0.29 0.05 0.04 0.10 0.10 0.04 0.00 0.00 0.00 0.00 0.00 0.01 0.00 0.00 0.01 0.01 0.17 0.24 0.19 0.07 0.07 0.16 0.22 0.17 0.51 0.45 0.32
0.25 0.18 0.19 0.24 0.37 0.45 0.62 0.54 0.54 1.01 1.66 1.95 1.80 1.43 1.52 0.78 0.64 0.48 0.54 0.27 0.16 0.08 0.08 0.12 0.08 0.04 0.01 0.00 0.00 0.00 0.00 0.00 0.00 0.00 0.00 0.05 0.29 0.39 0.34 0.34 0.35 0.32 0.25 0.36 0.38 0.78 0.68
0.30 0.19 0.16 0.18 0.31 0.36 0.45 0.36 0.46 1.03 1.40 1.83 1.56 1.88 2.18 1.46 0.33 0.18 0.22 0.12 0.06 0.05 0.05 0.11 0.13 0.08 0.04 0.02 0.00 0.00 0.00 0.00 0.00 0.00 0.02 0.20 0.40 0.59 0.59 0.52 0.71 0.51 0.28 0.50 0.95 1.18 0.38
0.27 0.19 0.15 0.16 0.19 0.23 0.28 0.31 0.72 1.28 1.44 1.47 1.15 0.78 0.57 0.74 0.30 0.09 0.15 0.10 0.04 0.08 0.09 0.14 0.11 0.09 0.05 0.03 0.01 0.00 0.00 0.00 0.00 0.02 0.13 0.45 0.81 0.91 0.42 0.32 0.62 0.60 0.30 0.42 0.97 0.54 0.45
0.32 0.22 0.15 0.13 0.10 0.14 0.19 0.24 0.61 1.39 1.67 1.16 0.90 0.43 0.06 0.04 0.03 0.01 0.03 0.05 0.04 0.09 0.14 0.13 0.07 0.04 0.05 0.04 0.01 0.00 0.00 0.00 0.00 0.02 0.11 0.33 0.74 0.74 0.46 0.33 0.34 0.33 0.13 0.24 0.54 0.38 0.25
0.31 0.22 0.15 0.11 0.08 0.12 0.12 0.27 0.58 1.40 1.82 1.28 0.74 0.39 0.08 0.04 0.03 0.02 0.01 0.00 0.01 0.09 0.07 0.04 0.05 0.08 0.06 0.04 0.03 0.02 0.01 0.02 0.01 0.02 0.11 0.33 0.50 0.79 0.66 0.40 0.38 0.32 0.08 0.17 0.38 0.32 0.16
0.24 0.18 0.14 0.10 0.06 0.09 0.10 0.32 0.62 1.16 1.51 1.27 0.74 0.47 0.18 0.09 0.03 0.01 0.01 0.01 0.01 0.06 0.08 0.06 0.03 0.07 0.05 0.04 0.05 0.06 0.02 0.02 0.02 0.01 0.03 0.16 0.37 0.74 0.93 0.76 0.75 0.44 0.13 0.16 0.17 0.16 0.10
0.23 0.16 0.11 0.07 0.06 0.08 0.10 0.33 0.49 0.62 0.68 0.76 0.57 0.41 0.20 0.08 0.03 0.03 0.03 0.02 0.03 0.05 0.08 0.12 0.08 0.02 0.05 0.09 0.17 0.20 0.20 0.06 0.00 0.01 0.01 0.04 0.20 0.38 0.43 0.35 0.17 0.11 0.13 0.11 0.08 0.10 0.03
0.24 0.15 0.09 0.05 0.05 0.07 0.09 0.22 0.35 0.46 0.51 0.65 0.67 0.63 0.21 0.08 0.04 0.02 0.03 0.02 0.07 0.13 0.12 0.11 0.11 0.09 0.13 0.23 0.36 0.24 0.10 0.04 0.01 0.01 0.00 0.01 0.06 0.25 0.18 0.19 0.08 0.03 0.02 0.02 0.03 0.03 0.00
0.22 0.15 0.08 0.05 0.05 0.07 0.07 0.15 0.37 0.34 0.39 0.53 0.63 0.50 0.19 0.07 0.01 0.01 0.02 0.01 0.04 0.13 0.19 0.20 0.17 0.23 0.23 0.35 0.35 0.15 0.02 0.00 0.00 0.01 0.02 0.06 0.10 0.15 0.14 0.14 0.01 0.00 0.00 0.01 0.08 0.06 0.00
0.23 0.15 0.08 0.04 0.04 0.06 0.09 0.14 0.37 0.28 0.35 0.44 0.41 0.41 0.24 0.06 0.01 0.01 0.00 0.01 0.06 0.12 0.22 0.25 0.34 0.35 0.42 0.39 0.31 0.14 0.02 0.01 0.00 0.00 0.00 0.03 0.05 0.07 0.07 0.09 0.00 0.00 0.00 0.03 0.02 0.00 0.01
0.22 0.12 0.07 0.04 0.04 0.07 0.08 0.14 0.37 0.28 0.31 0.39 0.31 0.31 0.22 0.08 0.02 0.00 0.00 0.00 0.03 0.09 0.22 0.24 0.36 0.29 0.31 0.36 0.19 0.11 0.04 0.01 0.00 0.01 0.00 0.00 0.00 0.00 0.00 0.00 0.00 0.00 0.00 0.00 0.00 0.00 0.00